Torna al catalogo

PAYLOAD C

AttivoMilitareSSO
NORAD 39210·PAYLOAD·🇨🇳 China

Lanciato Jul 19, 2013 da Taiyuan Satellite Launch Center

Loading…

Prossimi Passaggi (prossime 24 ore)

TLE

AggiornatoSource: Space-Track

Epoca: Sep 14, 2026, 15:29 UTC

1 39210U 13037C   26257.64568127  .00000405  00000-0  73188-4 0  9990
2 39210  98.1096 260.2979 0005256 212.3338 147.7548 14.71595163707489

Traccia PAYLOAD C in tempo reale con AllMySat

Download on the App Store